Tracking 27420 objects as of 28-May-2023
HD Live streaming from Space Station
objects crossing your sky now

FREGAT DEB

Track FREGAT DEB now!
10-day predictions


NORAD ID: 52960
Int'l Code: 2011-037PP
Perigee: 309.1 km
Apogee: 2,282.3 km
Inclination: 51.4 °
Period: 111.3 minutes
Semi major axis: 7666 km
RCS: Unknown
Launch date: July 18, 2011
Source: Commonwealth of Independent States (former USSR) (CIS)
Launch site: TYURATAM MISSILE AND SPACE COMPLEX (TTMTR)

Note: This is SATELLITE DEBRIS
Your satellite tracking list
Your tracking list is empty




NASA's NSSDC Master Catalog

Two Line Element Set (TLE):
1 52960U 11037PP  23146.52431169  .00211180  00000-0  67450-2 0  9998
2 52960  51.3953 202.5211 1286888 200.1649 154.3591 12.93273230 46578
Source of the keplerian elements: AFSPC